GW6383 Weather Reports


Display with metric or nautical units.
time (UTC)temp
F
wind
direction
speed
MPH
gust
MPH
rain 1hr
in
rain 24hr
in
rain mn
in
humidity
%
barometer
mb
20260505054239 67 170 0.0 1.0 0.00 0.00 0.00 75 1004.0
20260505053737 67 212 0.0 0.0 0.00 0.00 0.00 75 1003.9
20260505053233 67 215 1.0 2.0 0.00 0.00 0.00 74 1003.8
20260505052731 67 188 0.0 0.0 0.00 0.00 0.00 74 1003.8
20260505052228 68 185 0.0 0.0 0.00 0.00 0.00 73 1003.7
20260505051725 68 188 0.0 0.0 0.00 0.00 0.00 73 1003.5
20260505051223 68 189 0.0 0.0 0.00 0.00 0.00 73 1003.7
20260505050720 68 195 0.0 0.0 0.00 0.00 0.00 72 1003.4
20260505050219 68 194 0.0 0.0 0.00 0.00 0.00 71 1003.5
20260505041648 70 192 1.0 2.0 0.00 0.00 0.00 70 1003.2
20260505041146 71 183 1.0 1.0 0.00 0.00 0.00 69 1003.5
20260505040643 71 182 0.0 0.0 0.00 0.00 0.00 69 1003.3
20260505040140 71 180 0.0 0.0 0.00 0.00 0.00 68 1003.2
20260505035636 72 174 1.0 1.0 0.00 0.00 0.00 67 1003.2
20260505035132 72 183 0.0 0.0 0.00 0.00 0.00 67 1003.3
20260505034629 72 186 0.0 1.0 0.00 0.00 0.00 66 1003.7
20260505034126 72 182 2.0 2.0 0.00 0.00 0.00 66 1003.5
20260505033622 73 189 1.0 2.0 0.00 0.00 0.00 65 1003.4
20260505033121 73 115 1.0 3.0 0.00 0.00 0.00 64 1003.3
20260505032619 73 143 2.0 3.0 0.00 0.00 0.00 64 1003.4
20260505032115 73 152 2.0 3.0 0.00 0.00 0.00 64 1003.3
20260505031612 73 91 2.0 3.0 0.00 0.00 0.00 63 1003.7
20260505031108 73 97 2.0 3.0 0.00 0.00 0.00 63 1004.2
20260505030605 73 188 1.0 1.0 0.00 0.00 0.00 63 1004.1
20260505030101 73 142 3.0 3.0 0.00 0.00 0.00 63 1004.2
20260505025557 73 159 1.0 2.0 0.00 0.00 0.00 63 1004.2
20260505025056 73 178 0.0 0.0 0.00 0.00 0.00 62 1004.1
20260505024553 73 113 2.0 3.0 0.00 0.00 0.00 62 1003.9
20260505024050 73 211 0.0 1.0 0.00 0.00 0.00 62 1004.0
20260505023547 73 168 0.0 0.0 0.00 0.00 0.00 61 1003.9
20260505023045 73 181 0.0 0.0 0.00 0.00 0.00 61 1003.8
20260505022542 74 215 0.0 1.0 0.00 0.00 0.00 61 1004.1
20260505022039 74 181 1.0 1.0 0.00 0.00 0.00 61 1003.9
20260505021536 74 221 2.0 2.0 0.00 0.00 0.00 60 1003.8
20260505021033 74 216 2.0 2.0 0.00 0.00 0.00 60 1003.6
20260505020532 74 223 2.0 3.0 0.00 0.00 0.00 59 1003.1
20260505020030 74 213 1.0 1.0 0.00 0.00 0.00 58 1003.1
20260505015527 74 210 2.0 2.0 0.00 0.00 0.00 58 1003.3
20260505015023 74 230 5.0 8.0 0.00 0.00 0.00 57 1003.0
20260505014520 75 217 2.0 2.0 0.00 0.00 0.00 56 1002.8
20260505014018 75 146 1.0 1.0 0.00 0.00 0.00 55 1002.7
20260505013515 75 180 0.0 0.0 0.00 0.00 0.00 55 1002.9
20260505013012 75 160 2.0 3.0 0.00 0.00 0.00 54 1002.4
20260505012510 75 170 0.0 1.0 0.00 0.00 0.00 54 1002.6
20260505012007 75 96 2.0 2.0 0.00 0.00 0.00 54 1002.8
20260505011502 75 138 2.0 2.0 0.00 0.00 0.00 53 1002.6
20260505010959 76 166 1.0 1.0 0.00 0.00 0.00 53 1002.5
20260505010455 76 136 1.0 1.0 0.00 0.00 0.00 53 1002.4
20260505005951 76 191 1.0 1.0 0.00 0.00 0.00 52 1002.7
20260505005448 76 150 1.0 2.0 0.00 0.00 0.00 51 1002.6
20260505004946 77 196 0.0 1.0 0.00 0.00 0.00 51 1002.5
20260505004442 77 137 0.0 0.0 0.00 0.00 0.00 50 1002.6
20260505003939 77 182 0.0 1.0 0.00 0.00 0.00 49 1002.6
20260505003436 77 226 2.0 2.0 0.00 0.00 0.00 49 1002.5
20260505002932 78 210 1.0 1.0 0.00 0.00 0.00 48 1002.7
20260505002429 78 214 2.0 2.0 0.00 0.00 0.00 47 1002.5
20260505001927 78 138 1.0 3.0 0.00 0.00 0.00 48 1003.0
20260505001425 78 201 0.0 1.0 0.00 0.00 0.00 47 1002.7
20260505000921 78 212 1.0 1.0 0.00 0.00 0.00 48 1002.9
20260505000420 78 202 2.0 3.0 0.00 0.00 0.00 47 1002.7
20260504235916 79 223 1.0 2.0 0.00 0.00 0.00 46 1002.9
20260504235413 79 223 1.0 3.0 0.00 0.00 0.00 45 1002.9
20260504234909 79 198 1.0 1.0 0.00 0.00 0.00 45 1002.8
20260504234407 79 147 1.0 2.0 0.00 0.00 0.00 44 1002.8
20260504233903 80 207 4.0 4.0 0.00 0.00 0.00 44 1002.8
20260504233359 80 74 1.0 2.0 0.00 0.00 0.00 43 1002.9
20260504232856 80 220 2.0 2.0 0.00 0.00 0.00 44 1003.0
20260504232353 80 219 6.0 9.0 0.00 0.00 0.00 43 1003.1
20260504231850 80 109 2.0 2.0 0.00 0.00 0.00 43 1003.0
20260504231346 80 168 6.0 8.0 0.00 0.00 0.00 43 1002.9
20260504230843 80 250 7.0 9.0 0.00 0.00 0.00 43 1002.9
20260504230340 81 132 2.0 2.0 0.00 0.00 0.00 43 1003.0
20260504225839 81 108 4.0 4.0 0.00 0.00 0.00 42 1003.1
20260504225335 81 234 4.0 7.0 0.00 0.00 0.00 42 1002.9
20260504224833 81 254 6.0 8.0 0.00 0.00 0.00 42 1002.8
20260504224329 81 241 5.0 8.0 0.00 0.00 0.00 42 1003.0
20260504223826 81 224 4.0 4.0 0.00 0.00 0.00 43 1002.8
20260504223321 81 204 3.0 6.0 0.00 0.00 0.00 42 1002.8
20260504222818 81 227 4.0 7.0 0.00 0.00 0.00 40 1002.9
20260504222315 81 195 6.0 7.0 0.00 0.00 0.00 41 1003.0
20260504221814 81 202 7.0 9.0 0.00 0.00 0.00 41 1003.0
20260504221310 81 173 4.0 4.0 0.00 0.00 0.00 40 1003.0
20260504220807 82 216 4.0 8.0 0.00 0.00 0.00 39 1003.1
20260504220304 82 214 4.0 6.0 0.00 0.00 0.00 39 1003.1
20260504215801 82 237 11.0 13.0 0.00 0.00 0.00 38 1003.2
20260504215257 83 229 7.0 9.0 0.00 0.00 0.00 39 1003.0
20260504214753 84 223 6.0 9.0 0.00 0.00 0.00 38 1003.0
20260504214250 84 222 9.0 10.0 0.00 0.00 0.00 37 1002.9
20260504213747 85 210 6.0 8.0 0.00 0.00 0.00 39 1003.1
20260504213243 86 230 5.0 7.0 0.00 0.00 0.00 38 1003.1
20260504212740 85 111 1.0 2.0 0.00 0.00 0.00 35 1003.0
20260504212236 84 160 2.0 3.0 0.00 0.00 0.00 36 1002.9
20260504211734 83 184 3.0 4.0 0.00 0.00 0.00 40 1003.1
20260504211230 84 73 4.0 6.0 0.00 0.00 0.00 38 1003.2
20260504210728 84 218 3.0 4.0 0.00 0.00 0.00 37 1003.3
20260504210225 85 174 5.0 7.0 0.00 0.00 0.00 39 1003.3
20260504205722 86 177 5.0 7.0 0.00 0.00 0.00 37 1003.1
20260504205219 85 237 9.0 10.0 0.00 0.00 0.00 37 1003.3
20260504204717 85 99 4.0 8.0 0.00 0.00 0.00 35 1003.3
20260504204216 85 235 7.0 9.0 0.00 0.00 0.00 37 1003.3
20260504203715 86 225 6.0 8.0 0.00 0.00 0.00 35 1003.6
20260504203212 86 228 4.0 6.0 0.00 0.00 0.00 38 1003.6
20260504202711 86 191 4.0 7.0 0.00 0.00 0.00 37 1003.7
20260504202209 87 220 4.0 6.0 0.00 0.00 0.00 36 1003.7
20260504201706 86 215 5.0 8.0 0.00 0.00 0.00 36 1003.9
20260504201203 86 217 3.0 6.0 0.00 0.00 0.00 36 1003.9
20260504200701 86 285 11.0 13.0 0.00 0.00 0.00 36 1004.0
20260504200157 86 133 2.0 4.0 0.00 0.00 0.00 37 1004.0
20260504195653 86 220 4.0 4.0 0.00 0.00 0.00 39 1004.1
20260504195149 85 227 2.0 2.0 0.00 0.00 0.00 37 1004.1
20260504194646 84 230 6.0 9.0 0.00 0.00 0.00 37 1004.3
20260504194142 84 152 4.0 6.0 0.00 0.00 0.00 40 1004.2
20260504193639 85 195 5.0 8.0 0.00 0.00 0.00 36 1004.6
20260504193137 85 100 1.0 2.0 0.00 0.00 0.00 37 1004.6
20260504192634 85 219 4.0 4.0 0.00 0.00 0.00 38 1004.5
20260504192132 86 271 6.0 9.0 0.00 0.00 0.00 36 1004.7
20260504191631 85 211 4.0 6.0 0.00 0.00 0.00 36 1004.5
20260504191127 84 212 2.0 3.0 0.00 0.00 0.00 38 1004.6
20260504190623 85 239 5.0 7.0 0.00 0.00 0.00 39 1004.8
20260504190120 85 229 6.0 9.0 0.00 0.00 0.00 38 1004.8
20260504185616 86 226 3.0 4.0 0.00 0.00 0.00 38 1004.8
20260504185113 84 253 5.0 6.0 0.00 0.00 0.00 39 1004.7
20260504184608 84 220 3.0 4.0 0.00 0.00 0.00 38 1004.9
20260504184103 85 230 5.0 7.0 0.00 0.00 0.00 36 1004.9
20260504183601 84 218 3.0 3.0 0.00 0.00 0.00 39 1005.0
20260504183059 83 219 3.0 3.0 0.00 0.00 0.00 38 1004.7
20260504182556 83 219 7.0 11.0 0.00 0.00 0.00 36 1005.3
20260504182053 84 222 8.0 9.0 0.00 0.00 0.00 34 1005.0
20260504181550 82 233 1.0 1.0 0.00 0.00 0.00 37 1005.2
20260504181048 82 105 1.0 1.0 0.00 0.00 0.00 37 1005.4
20260504180547 81 211 5.0 6.0 0.00 0.00 0.00 41 1005.2
20260504180046 83 213 1.0 2.0 0.00 0.00 0.00 37 1005.4
20260504175542 81 175 4.0 7.0 0.00 0.00 0.00 43 1005.3
20260504175039 81 250 3.0 4.0 0.00 0.00 0.00 42 1005.3
20260504174537 81 210 5.0 8.0 0.00 0.00 0.00 37 1005.2
20260504174033 80 223 9.0 10.0 0.00 0.00 0.00 40 1005.5
20260504173530 80 221 5.0 7.0 0.00 0.00 0.00 39 1005.8
20260504173028 79 227 6.0 9.0 0.00 0.00 0.00 40 1005.7
20260504172524 79 224 6.0 7.0 0.00 0.00 0.00 43 1005.6
20260504172021 80 194 5.0 6.0 0.00 0.00 0.00 39 1005.6
20260504171517 79 180 2.0 2.0 0.00 0.00 0.00 45 1005.6
20260504171014 79 212 0.0 1.0 0.00 0.00 0.00 43 1005.6
20260504170510 78 223 4.0 7.0 0.00 0.00 0.00 43 1005.8
20260504160431 73 237 5.0 8.0 0.00 0.00 0.00 47 1005.4
20260504150854 71 265 6.0 11.0 0.00 0.00 0.00 49 1005.8
20260504150351 70 236 6.0 7.0 0.00 0.00 0.00 48 1005.9
20260504141321 67 229 4.0 6.0 0.00 0.00 0.00 53 1006.1
20260504140817 67 223 4.0 7.0 0.00 0.00 0.00 53 1006.2
20260504140313 67 209 4.0 6.0 0.00 0.00 0.00 53 1006.2
20260504130742 64 223 6.0 9.0 0.00 0.00 0.00 56 1006.2
20260504130238 64 233 7.0 9.0 0.00 0.00 0.00 55 1006.0
20260504120202 62 232 5.0 8.0 0.00 0.00 0.00 55 1006.1
20260504110629 64 224 5.0 7.0 0.00 0.00 0.00 52 1006.4
20260504110125 64 226 6.0 10.0 0.00 0.00 0.00 51 1006.4
20260504100551 65 218 7.0 9.0 0.00 0.00 0.00 48 1006.9
20260504081944 67 236 12.0 15.0 0.00 0.00 0.00 43 1007.4
20260504081441 67 228 11.0 16.0 0.00 0.00 0.00 43 1007.4
20260504080937 67 219 4.0 8.0 0.00 0.00 0.00 43 1007.5
20260504080434 67 201 7.0 11.0 0.00 0.00 0.00 43 1007.6
20260504070402 68 237 6.0 8.0 0.00 0.00 0.00 42 1008.5